Regional Weather Roundup
Issued by NWS

Home | Current Version | Previous Version | Text Only | Print | Product List | Glossary Off
Versions: 1 2 3 4 5 6 7 8 9 10 11 12 13 14 15 16 17 18 19 20 21 22 23 24 25 26 27 28 29 30 31 32 33 34 35 36 37 38 39 40 41 42 43 44 45 46 47 48 49 50

000
ASUS43 KLSX 171259
RWRMO

WEATHER SUMMARY FOR MISSOURI
NATIONAL WEATHER SERVICE SPRINGFIELD MO
800 AM CDT THU APR 17 2014

NOTE: "FAIR" INDICATES FEW OR NO CLOUDS BELOW 12,000 FEET WITH NO
       SIGNIFICANT WEATHER AND/OR OBSTRUCTIONS TO VISIBILITY.
       CURRENT SKY AND/OR WEATHER CONDITIONS ARE NOT AVAILABLE FOR
       CHILLICOTHE AND FARMINGTON.

MOZ001>031-035>038-043-044-053-054-171400-
...NORTHERN AND WESTERN MISSOURI...

CITY           SKY/WX    TMP DP  RH WIND       PRES   REMARKS
KANSAS CTY INT CLOUDY    37  29  72 N10       30.25R WCI  30
KANSAS C DTWN  CLOUDY    40  30  67 N12       30.25R
LEE`S SUMMIT   CLOUDY    39  31  72 N13       30.24R
ST JOSEPH      CLOUDY    37  28  70 N16       30.28R WCI  28
CHILLICOTHE      N/A     39  31  72 NW8       30.25R
KIRKSVILLE     CLOUDY    40  33  76 NW8       30.22R

$$
MOZ066>068-077>081-088>096-101>105-171400-
...SOUTHWEST MISSOURI...

CITY           SKY/WX    TMP DP  RH WIND       PRES   REMARKS
SPRINGFIELD    PTSUNNY   45  33  63 S6        30.19R
JOPLIN         CLOUDY    45  36  70 N6        30.20R

$$
MOZ032>034-039>042-045>050-055>058-069>072-171400-
...CENTRAL MISSOURI...

CITY           SKY/WX    TMP DP  RH WIND       PRES   REMARKS
COLUMBIA       PTSUNNY   43  36  76 NW12      30.21R
JEFFERSON CITY PTSUNNY   46  36  68 W8        30.21R
ROLLA          SUNNY     45  32  60 S10       30.19R
SEDALIA        CLOUDY    42  35  76 N8        30.23R
OSAGE BEACH    PTSUNNY   45  32  61 NW3       30.22R

$$
MOZ051-052-059>065-171400-
...EAST CENTRAL MISSOURI...

CITY           SKY/WX    TMP DP  RH WIND       PRES   REMARKS
ST LOUIS INTL  PTSUNNY   50  31  48 SW6       30.21R
SPIRIT OF STL  MOSUNNY   48  33  56 SW6       30.20R
ST CHARLES     MOSUNNY   44  36  73 E3        30.21R

$$
MOZ072>076-082>087-097>100-106>115-171400-
...SOUTH CENTRAL AND SOUTHEAST MISSOURI...

CITY           SKY/WX    TMP DP  RH WIND       PRES   REMARKS
CAPE GIRARDEAU SUNNY     44  38  79 SE3       30.27R
FARMINGTON     MOSUNNY   45  32  61 S6        30.26R
POPLAR BLUFF   SUNNY     43  36  76 CALM      30.26R
WEST PLAINS    MOSUNNY   47  33  58 S5        30.24R

$$



USA.gov is the U.S. government's official web portal to all federal, state and local government web resources and services.